Dewpoint
28 28 27 27 29 30 29 29 27 26 27 30 29 24 24 24 25 27 27 28 29 27 24 25 27 27 26 26 25 25 24 25 25 25 26 26 25 24 24 24 24 23 23 22
27 29 29 27 28 28 29 29 31 31 30 27 28 29 29 29 25 26 28 27 28 28 28 27 27 27 27 26 26 26 25 25 25 26 26 25 25 24 24 24 24 23 23 22
23 27 29 25 27 28 28 29 28 27 26 27 27 28 29 29 29 28 28 30 28 27 26 26 26 27 25 25 26 26 26 26 26 26 25 25 24 24 23 23 23 22 22 22
23 26 18 23 22 23 24 22 25 27 27 28 30 31 31 31 29 30 29 28 26 26 25 25 25 25 25 26 26 26 26 26 26 25 25 24 24 23 23 23 22 22 21 21
22 22 24 23 19 20 19 22 28 27 27 28 29 29 29 30 30 30 30 29 27 27 26 26 26 25 26 26 25 25 25 24 24 24 23 23 22 22 22 22 21 21 21 20
23 19 16 19 19 20 22 19 29 29 28 27 29 22 24 30 31 31 31 31 28 27 27 27 26 27 26 24 23 23 23 23 24 24 23 22 23 22 22 22 23 20 19 18
20 20 21 19 25 28 19 20 28 26 26 25 23 25 26 30 31 31 31 30 28 27 26 25 26 25 24 22 22 23 23 23 23 21 21 21 19 20 21 22 22 19 18 18
20 18 15 29 28 20 26 28 27 23 22 21 24 27 28 29 30 30 31 28 27 25 24 24 24 23 21 20 20 21 21 21 20 21 20 19 19 19 20 19 18 18 18 18
16 20 29 31 29 27 26 25 26 26 25 27 27 27 28 29 29 29 29 26 25 24 22 22 20 18 18 18 21 19 19 19 19 19 18 18 18 20 20 19 19 19 19 20
21 27 27 28 26 23 26 27 30 30 29 26 26 26 28 26 24 24 24 24 22 21 19 15 16 17 17 18 19 19 19 19 18 18 18 18 18 18 18 19 19 19 18 17
22 27 27 24 18 22 22 25 25 23 22 23 23 22 23 22 22 22 20 19 19 15 14 14 14 14 15 16 17 18 18 18 18 19 18 18 19 18 19 20 21 21 22 22
22 24 23 16 20 21 19 19 20 20 20 21 22 21 20 19 19 18 16 15 13 13 12 12 13 13 14 14 16 17 17 17 18 18 19 19 19 19 19 19 19 21 23 22
23 20 19 18 19 18 18 19 20 21 20 20 21 19 18 16 14 15 11 12 10 11 12 12 12 12 13 14 15 17 17 17 18 20 19 18 18 18 18 20 18 17 18 20
18 19 16 17 17 19 20 20 20 19 21 20 19 18 15 12 11 10 9 9 11 12 12 12 12 12 12 13 15 17 17 18 19 19 19 20 21 20 17 17 17 18 18 18
22 20 19 20 20 21 21 19 17 18 19 18 16 13 11 9 8 8 9 11 12 12 11 10 10 11 12 13 16 17 17 18 20 21 22 19 17 17 17 17 18 18 19 19
19 17 19 20 18 18 19 16 16 16 15 15 12 10 9 9 8 9 10 11 10 9 10 11 11 12 13 15 16 17 19 19 20 23 18 17 17 17 16 16 18 18 18 18
16 16 16 15 16 16 16 16 16 16 15 12 9 9 8 7 9 9 9 9 10 11 11 12 12 14 14 16 19 21 20 20 21 17 17 17 17 16 17 18 18 18 18 20
18 17 16 16 16 15 15 16 16 15 12 9 9 8 8 8 8 9 10 10 11 11 12 12 13 15 19 18 20 21 21 21 18 17 18 17 16 18 17 17 17 18 18 19
17 16 16 16 16 16 15 14 13 11 10 10 10 9 9 10 10 10 10 11 11 11 11 13 15 16 17 17 19 22 22 19 17 17 17 16 15 16 15 16 17 18 18 19
15 14 14 14 14 12 11 11 10 9 9 8 8 8 9 9 9 10 10 9 10 10 12 13 16 14 16 18 18 22 19 18 17 17 16 16 14 14 15 15 16 17 18 18
13 12 12 11 10 11 11 10 10 9 8 8 8 9 9 9 9 9 8 8 9 10 13 13 13 17 15 17 22 20 19 17 17 16 15 14 14 14 14 14 15 16 16 18
10 10 9 9 9 9 9 9 8 8 8 7 8 9 8 7 8 7 7 8 9 10 11 16 15 14 18 19 22 19 17 17 16 16 15 14 13 13 13 14 15 15 17 17
8 8 7 7 8 7 7 7 7 7 6 7 9 7 6 7 6 5 5 6 9 11 11 12 14 14 17 20 20 18 17 16 15 15 15 14 14 13 15 14 15 16 15 16
8 7 6 7 6 5 4 4 4 4 6 6 4 5 5 4 3 4 6 8 7 8 11 10 12 14 16 18 17 17 17 16 15 15 15 16 15 14 14 14 16 16 16 17
7 6 5 4 4 2 2 1 2 3 4 3 3 3 2 2 5 6 5 5 6 7 7 8 9 12 13 15 17 17 16 16 16 16 16 15 14 14 15 15 15 16 18 17
4 2 5 3 0 -1 -2 -1 2 2 0 0 0 0 2 6 2 2 3 3 3 4 4 5 6 9 13 13 15 17 17 16 15 14 16 16 15 15 14 14 15 16 17 18
1 2 3 -0 -2 -3 -2 1 0 -2 -1 -2 -1 4 3 0 -0 0 1 0 1 2 2 4 5 7 11 14 15 17 17 16 15 16 17 16 15 15 14 14 15 16 16 17
Wind_Speed
21 22 23 24 22 20 23 29 27 33 27 22 16 12 10 5 5 4 4 3 6 9 9 9 8 10 10 10 11 12 13 14 17 18 16 16 17 16 15 15 16 16 17 16
19 18 25 31 25 28 29 26 26 30 27 7 7 5 10 8 6 4 1 3 5 6 7 8 9 10 11 13 14 13 16 18 18 18 19 19 19 18 17 17 17 17 18 18
26 8 11 14 20 22 4 2 7 10 2 2 14 16 15 14 6 3 2 4 7 9 8 9 11 11 14 15 16 17 18 19 17 18 20 18 18 18 19 19 18 18 19 18
15 4 17 2 5 7 10 8 10 9 5 8 12 13 16 7 4 5 5 4 6 6 8 11 12 15 15 15 17 18 18 19 18 18 19 16 16 17 17 16 17 18 19 18
6 9 11 6 5 4 4 3 8 10 12 10 13 13 8 8 5 2 4 7 9 9 10 12 15 16 16 17 17 16 17 17 17 15 19 18 19 18 17 19 21 18 18 20
2 7 7 4 2 3 1 4 9 9 11 14 13 9 5 4 4 7 9 10 11 11 12 12 14 13 16 17 17 18 17 17 17 16 18 20 18 20 19 19 17 17 20 20
15 12 3 4 5 6 3 4 12 13 10 10 8 0 7 8 10 9 10 11 10 12 12 11 12 13 17 16 17 17 18 19 16 18 19 18 20 19 19 17 16 18 21 21
6 8 12 3 1 2 2 5 5 2 1 2 4 9 11 13 13 13 13 9 10 14 15 12 12 14 17 17 19 19 20 19 20 18 18 18 19 19 17 17 18 19 19 19
3 1 7 8 13 7 5 3 2 3 6 8 12 14 15 14 14 13 10 13 12 16 21 14 13 14 21 21 19 20 19 19 18 19 18 18 18 17 15 14 15 16 16 16
5 10 11 10 7 4 4 2 2 6 9 10 13 14 15 12 14 15 12 14 13 17 19 22 18 16 17 19 18 18 19 18 18 18 19 16 15 14 15 15 15 16 17 17
5 13 10 5 6 9 5 2 2 4 6 9 10 13 10 14 14 14 15 16 12 18 19 20 18 17 18 18 16 16 17 17 17 15 16 16 16 15 15 16 17 19 17 17
2 6 4 5 8 6 6 7 7 8 13 9 7 10 12 15 14 15 18 15 18 17 17 19 18 18 18 17 15 16 17 15 15 16 15 15 16 18 19 21 24 25 26 24
4 4 3 3 4 6 6 7 7 8 10 12 9 9 11 16 14 17 19 18 18 20 19 20 20 20 18 18 16 16 16 17 17 16 15 16 17 18 20 17 21 23 23 24
6 2 2 3 3 10 8 6 9 11 7 4 8 10 12 15 16 16 18 20 19 19 19 19 20 22 19 18 17 16 17 20 17 15 16 16 15 13 16 17 20 19 20 23
5 3 1 6 9 8 3 8 14 11 8 10 9 13 14 18 19 19 19 18 18 18 18 17 20 21 18 17 17 17 17 16 16 15 12 17 15 14 15 17 18 19 19 20
1 2 5 7 14 16 10 11 13 13 10 12 15 15 16 17 19 19 18 16 19 21 19 18 20 20 18 18 19 17 14 20 19 11 14 14 13 15 16 17 17 17 17 17
6 10 17 21 19 19 14 11 9 11 14 16 17 17 17 18 16 15 17 17 17 19 19 19 20 17 18 18 18 14 14 16 14 13 13 13 14 15 16 16 17 17 17 18
7 5 5 8 14 15 12 8 8 11 15 15 16 16 17 17 19 19 19 19 17 17 17 15 16 18 15 17 18 15 14 10 11 13 12 13 14 13 15 16 17 17 18 18
11 13 10 9 9 10 11 13 13 13 15 14 15 17 16 16 16 18 18 17 17 17 15 16 21 20 18 20 22 13 11 9 13 12 11 15 14 14 15 15 17 17 17 17
12 12 11 11 11 13 13 12 13 14 14 16 17 16 16 15 17 17 16 17 16 16 19 19 19 17 19 19 23 19 5 11 12 12 12 12 13 14 14 17 18 17 17 17
7 8 8 10 11 11 11 12 13 13 13 14 15 16 17 17 17 17 17 18 17 17 20 22 19 16 18 21 23 4 7 11 11 12 12 13 14 15 15 15 16 16 17 17
8 9 10 10 11 12 13 15 11 12 14 14 14 14 16 17 17 17 15 17 17 22 21 16 16 21 22 26 16 6 10 11 11 12 12 12 13 14 15 15 16 16 16 17
9 9 11 12 12 13 14 11 14 15 17 16 16 16 16 16 16 18 20 16 18 21 22 19 22 26 26 20 7 11 11 12 12 12 13 13 13 14 15 16 16 16 16 16
10 11 12 12 13 12 13 13 14 15 16 16 16 17 18 19 17 15 17 22 27 25 22 22 24 27 25 12 14 13 13 12 12 12 13 15 12 14 15 15 16 16 16 18
6 9 9 11 11 11 12 14 15 14 15 16 16 17 18 16 17 19 19 20 24 25 20 23 26 24 17 17 16 12 13 12 11 12 10 12 13 14 14 15 16 16 17 16
5 7 5 8 10 10 11 13 14 14 16 18 17 18 18 15 18 20 18 22 21 23 19 18 18 18 16 16 17 14 12 11 13 13 13 12 13 15 15 16 16 17 17 18
8 10 7 8 7 10 12 15 15 15 16 16 19 18 17 18 19 21 22 20 20 20 19 19 17 19 18 16 18 12 11 11 12 12 10 11 13 14 15 16 17 17 17 17
Wind_Direction
256 270 277 272 268 244 233 244 256 277 278 300 351 47 38 346 355 21 13 44 65 42 36 35 7 345 338 329 320 310 300 291 284 283 283 285 283 283 283 279 277 275 274 268
272 268 265 267 265 262 254 255 261 271 280 30 44 40 349 314 294 284 141 90 34 32 20 347 327 318 315 312 306 300 298 294 293 291 288 285 286 285 284 283 280 277 272 269
281 287 316 275 250 244 219 216 255 271 74 331 350 339 326 316 297 303 57 24 8 346 335 325 314 312 308 303 301 295 291 287 284 283 284 283 280 279 277 276 275 275 275 271
278 295 272 222 91 84 103 58 59 82 37 320 324 310 304 334 14 71 35 5 305 310 312 311 309 312 306 300 291 288 288 284 282 282 281 283 284 283 284 284 286 285 282 280
252 233 283 270 40 55 60 120 52 16 356 342 329 320 68 58 66 152 248 284 290 296 293 293 297 301 301 305 304 301 297 296 297 305 305 298 294 296 293 289 283 279 281 284
269 261 270 95 76 20 152 175 10 13 359 350 328 354 47 336 301 302 295 295 301 303 296 296 300 299 308 310 308 302 302 304 303 298 296 298 296 292 288 284 279 284 285 281
241 256 217 123 331 312 227 346 44 68 47 31 43 137 266 296 293 278 285 297 306 309 304 306 313 312 308 307 303 302 305 299 300 301 292 295 296 293 291 288 285 287 285 281
214 245 268 351 293 46 47 52 113 118 115 314 289 302 303 303 305 306 302 307 314 318 320 326 327 322 311 311 315 314 309 313 308 309 306 302 299 297 291 288 286 282 278 279
281 333 90 65 106 134 159 166 267 314 321 316 308 301 299 298 309 317 311 325 333 333 321 322 328 329 318 313 312 312 309 308 307 305 303 299 299 298 299 294 290 289 287 286
347 116 118 121 139 163 172 231 222 270 303 315 310 311 312 326 329 325 332 329 329 321 319 316 316 310 300 304 308 310 308 307 307 307 305 314 305 298 294 288 286 282 283 282
247 110 109 142 182 111 69 45 345 338 319 318 325 317 326 324 322 325 325 320 320 318 308 305 306 307 304 305 309 310 308 306 306 304 303 302 297 292 289 284 279 281 278 271
71 156 137 116 103 100 35 8 352 334 323 325 332 324 326 318 317 317 316 320 318 311 309 311 311 309 308 309 311 307 304 306 305 308 301 300 298 296 290 294 301 301 300 299
158 98 71 34 65 54 350 344 336 322 309 306 317 324 318 315 313 316 317 311 315 314 311 310 311 310 308 309 311 303 301 302 296 301 301 297 297 294 298 309 311 311 311 310
88 101 89 70 346 333 325 336 328 306 299 312 310 311 312 313 312 314 311 308 307 307 306 307 307 305 304 305 304 294 294 300 304 295 291 294 297 312 311 310 313 313 314 313
105 53 249 296 313 329 351 344 331 320 311 315 312 311 315 316 315 311 306 306 304 304 304 308 307 302 304 302 298 293 291 293 292 286 289 312 316 311 309 308 308 306 309 312
333 323 6 352 348 349 343 337 326 319 316 316 317 318 313 306 303 302 301 306 316 312 306 303 300 295 298 302 300 296 290 305 308 313 321 311 314 312 310 309 308 309 309 309
21 1 352 337 332 321 317 309 301 303 313 316 315 313 312 311 305 303 309 306 299 297 294 292 289 300 303 298 297 294 294 294 306 326 311 310 310 308 304 307 312 309 307 308
66 29 336 301 309 320 327 313 313 318 318 312 311 312 314 318 315 312 309 308 304 301 297 301 309 306 309 304 302 292 291 293 320 309 303 308 304 308 312 308 308 309 310 311
45 22 6 357 342 334 333 331 329 317 313 314 315 313 305 301 307 307 305 305 304 306 308 313 313 321 308 306 312 300 284 314 308 298 296 308 307 308 308 308 310 310 313 314
17 13 358 352 354 346 336 335 335 331 334 331 324 321 322 319 314 310 308 305 303 305 311 308 314 318 309 304 309 302 280 300 292 294 297 308 312 305 305 311 314 311 313 314
2 351 350 346 341 338 334 334 328 331 333 332 326 320 317 315 313 315 319 315 314 313 317 322 312 309 309 305 308 273 293 291 295 294 297 301 304 306 304 306 307 312 311 313
2 353 339 338 337 331 331 323 334 337 331 324 320 317 321 320 320 316 309 304 311 318 319 313 315 307 307 312 310 290 295 296 296 295 294 295 301 302 301 303 307 307 310 316
357 351 338 331 333 329 326 345 347 338 326 320 315 321 318 316 316 316 314 315 314 314 320 312 306 314 312 316 305 304 292 296 297 293 290 292 295 294 299 305 307 309 312 313
350 349 334 329 333 339 344 344 341 328 316 325 323 323 324 322 315 308 304 311 318 314 313 315 310 314 314 326 313 294 287 291 292 290 289 298 295 301 300 300 306 308 306 307
350 337 332 342 345 340 341 337 329 327 328 324 324 323 319 313 304 315 317 314 313 318 313 313 314 315 315 304 299 295 294 285 291 292 295 300 300 301 299 302 303 305 310 309
343 323 338 348 345 346 342 330 324 334 329 326 323 317 311 319 320 318 315 318 318 314 313 308 308 307 308 305 299 285 282 295 302 299 298 293 295 302 303 301 300 304 308 308
342 338 334 358 349 344 330 331 336 326 326 323 310 312 328 324 320 323 319 316 314 311 309 306 304 303 301 301 302 289 293 295 301 301 304 303 301 301 304 302 301 303 303 303